TimeCDT,TemperatureF,Dew PointF,Humidity,Sea Level PressureIn,VisibilityMPH,Wind Direction,Wind SpeedMPH,Gust SpeedMPH,PrecipitationIn,Events,Conditions,WindDirDegrees,DateUTC
12:58 AM,71.4,71.1,99,29.88,10.0,Calm,Calm,-,N/A,,Clear,0,2013-08-06 05:58:00
1:03 AM,69.8,69.8,100,29.89,4.0,Calm,Calm,-,N/A,,Clear,0,2013-08-06 06:03:00
1:08 AM,69.8,69.8,100,29.89,3.0,Calm,Calm,-,N/A,,Clear,0,2013-08-06 06:08:00
1:18 AM,69.8,69.8,100,29.88,6.0,Calm,Calm,-,N/A,,Clear,0,2013-08-06 06:18:00
1:23 AM,69.8,69.8,100,29.88,2.5,Calm,Calm,-,N/A,,Clear,0,2013-08-06 06:23:00
1:28 AM,69.8,69.8,100,29.87,0.8,Calm,Calm,-,N/A,,Clear,0,2013-08-06 06:28:00
1:53 AM,68.0,68.0,100,29.86,0.2,NE,1.2,-,N/A,Fog,Fog,40,2013-08-06 06:53:00
1:58 AM,68.2,68.2,100,29.85,6.0,NE,2.3,-,N/A,,Clear,50,2013-08-06 06:58:00
2:08 AM,68.0,68.0,100,29.86,0.5,NE,2.3,-,N/A,Fog,Fog,50,2013-08-06 07:08:00
2:38 AM,69.8,69.8,100,29.85,0.5,Calm,Calm,-,N/A,Fog,Fog,0,2013-08-06 07:38:00
2:48 AM,71.6,71.6,100,29.85,6.0,SSW,3.5,-,N/A,,Clear,200,2013-08-06 07:48:00
2:53 AM,71.6,71.6,100,29.85,10.0,SW,1.2,-,N/A,,Clear,220,2013-08-06 07:53:00
2:58 AM,71.2,71.2,100,29.84,9.0,Calm,Calm,-,N/A,,Clear,0,2013-08-06 07:58:00
3:03 AM,69.8,69.8,100,29.86,8.0,WSW,2.3,-,N/A,,Clear,250,2013-08-06 08:03:00
3:13 AM,69.8,69.8,100,29.86,10.0,South,1.2,-,N/A,,Clear,190,2013-08-06 08:13:00
3:43 AM,68.0,68.0,100,29.85,0.5,Calm,Calm,-,N/A,Fog,Fog,0,2013-08-06 08:43:00
4:23 AM,69.8,69.8,100,29.84,1.8,NE,3.5,-,N/A,,Mostly Cloudy,40,2013-08-06 09:23:00
4:28 AM,69.8,69.8,100,29.83,3.0,NE,4.6,-,N/A,,Mostly Cloudy,50,2013-08-06 09:28:00
4:48 AM,69.8,69.8,100,29.82,4.0,East,1.2,-,N/A,,Partly Cloudy,100,2013-08-06 09:48:00
5:24 AM,69.8,69.8,100,29.82,4.0,NNE,3.5,-,N/A,,Mostly Cloudy,20,2013-08-06 10:24:00
5:29 AM,71.6,71.6,100,29.82,5.0,NNE,4.6,-,N/A,,Overcast,30,2013-08-06 10:29:00
5:34 AM,71.6,71.6,100,29.82,5.0,NNE,3.5,-,N/A,,Overcast,30,2013-08-06 10:34:00
5:58 AM,71.4,71.4,100,29.82,6.0,Calm,Calm,-,N/A,,Overcast,0,2013-08-06 10:58:00
6:23 AM,71.6,71.6,100,29.85,6.0,Calm,Calm,-,N/A,,Overcast,0,2013-08-06 11:23:00
6:53 AM,71.6,71.6,100,29.85,6.0,ENE,3.5,-,N/A,,Scattered Clouds,70,2013-08-06 11:53:00
6:58 AM,72.1,72.1,100,29.84,6.0,ENE,3.5,-,N/A,,Scattered Clouds,70,2013-08-06 11:58:00
7:58 AM,70.7,70.7,100,29.89,7.0,Calm,Calm,-,N/A,,Clear,0,2013-08-06 12:58:00
8:18 AM,69.8,69.8,100,29.90,9.0,North,15.0,21.9,N/A,,Mostly Cloudy,360,2013-08-06 13:18:00
8:36 AM,69.8,69.8,100,29.90,10.0,NNE,5.8,-,N/A,,Overcast,20,2013-08-06 13:36:00
8:39 AM,69.8,69.8,100,29.90,10.0,NNW,4.6,-,N/A,,Overcast,340,2013-08-06 13:39:00
8:42 AM,69.8,69.8,100,29.90,10.0,NNW,4.6,-,N/A,,Overcast,330,2013-08-06 13:42:00
8:56 AM,69.8,68.0,94,29.91,10.0,WNW,4.6,-,N/A,,Mostly Cloudy,290,2013-08-06 13:56:00
9:18 AM,71.6,68.0,88,29.94,10.0,WNW,11.5,-,N/A,Thunderstorm,Mostly Cloudy,290,2013-08-06 14:18:00
9:21 AM,71.6,68.0,88,29.95,10.0,WNW,15.0,-,N/A,Thunderstorm,Mostly Cloudy,300,2013-08-06 14:21:00
9:29 AM,71.6,66.2,83,29.94,10.0,NW,16.1,24.2,N/A,Rain-Thunderstorm,Light Rain,310,2013-08-06 14:29:00
9:37 AM,69.8,66.2,88,29.92,10.0,NNW,11.5,20.7,N/A,Rain-Thunderstorm,Light Rain,330,2013-08-06 14:37:00
9:42 AM,69.8,66.2,88,29.91,10.0,NNE,10.4,20.7,N/A,Thunderstorm,Light Drizzle,20,2013-08-06 14:42:00
9:48 AM,71.6,66.2,83,29.90,10.0,ENE,8.1,17.3,N/A,Thunderstorm,Scattered Clouds,60,2013-08-06 14:48:00
9:56 AM,71.6,66.2,83,29.91,10.0,North,9.2,-,N/A,,Partly Cloudy,360,2013-08-06 14:56:00
10:55 AM,73.4,66.2,78,29.87,10.0,ESE,10.4,-,N/A,,Mostly Cloudy,120,2013-08-06 15:55:00
11:55 AM,80.6,66.2,61,29.85,10.0,ESE,9.2,-,N/A,,Scattered Clouds,120,2013-08-06 16:55:00
12:55 PM,86.0,66.2,51,29.77,10.0,SSE,12.7,-,N/A,,Partly Cloudy,160,2013-08-06 17:55:00
12:58 PM,85.3,66.4,53,29.81,10.0,SSE,12.7,-,N/A,,Partly Cloudy,150,2013-08-06 17:58:00
1:58 PM,88.7,68.7,51,29.81,10.0,SSE,12.7,-,N/A,,Clear,160,2013-08-06 18:58:00
2:55 PM,89.6,69.8,52,29.78,10.0,SSW,9.2,-,N/A,,Clear,200,2013-08-06 19:55:00
2:58 PM,89.4,69.4,52,29.80,10.0,SSW,9.2,18.4,N/A,,Clear,200,2013-08-06 19:58:00
3:58 PM,89.6,69.8,52,29.79,10.0,South,10.4,-,N/A,,Clear,190,2013-08-06 20:58:00
3:59 PM,89.6,70.7,54,29.80,10.0,South,10.4,-,N/A,,Clear,170,2013-08-06 20:59:00
4:58 PM,90.3,72.5,56,29.81,10.0,Calm,Calm,-,N/A,,Partly Cloudy,0,2013-08-06 21:58:00
5:58 PM,87.8,73.4,62,29.79,10.0,WSW,6.9,-,N/A,,Partly Cloudy,250,2013-08-06 22:58:00
6:58 PM,87.6,72.0,60,29.80,10.0,WSW,3.5,-,N/A,,Clear,240,2013-08-06 23:58:00
7:58 PM,86.4,72.7,64,29.80,10.0,SSW,3.5,-,N/A,,Clear,200,2013-08-07 00:58:00
8:58 PM,83.5,73.0,71,29.77,10.0,Calm,Calm,-,N/A,,Scattered Clouds,0,2013-08-07 01:58:00
9:58 PM,78.1,73.8,86,29.81,10.0,SSW,5.8,-,N/A,,Clear,200,2013-08-07 02:58:00
10:58 PM,75.4,73.8,95,29.85,10.0,NE,1.2,-,N/A,,Partly Cloudy,40,2013-08-07 03:58:00
11:58 PM,76.3,75.2,96,29.83,10.0,NE,3.5,-,N/A,,Partly Cloudy,40,2013-08-07 04:58:00